Regional Weather Roundup
Issued by NWS Charleston, SC

Current Version | Previous Version | Graphics & Text | Print | Product List | Glossary On
Versions: 1 2 3 4 5 6 7 8 9 10 11 12 13 14 15 16 17 18 19 20 21 22 23 24 25 26 27 28 29 30 31 32 33 34 35 36 37 38 39 40 41 42 43 44 45 46 47 48 49 50
000
ASUS42 KCHS 010125
RWRCHS

REGIONAL WEATHER ROUNDUP
NATIONAL WEATHER SERVICE CHARLESTON SC
900 PM EDT THU JUL 31 2014

NOTE: "FAIR" INDICATES FEW OR NO CLOUDS BELOW 12,000 FEET WITH NO
SIGNIFICANT WEATHER AND/OR OBSTRUCTIONS TO VISIBILITY.

NOT ALL STATIONS ARE QUALITY CONTROLLED BY THE NATIONAL
WEATHER SERVICE. USE DATA WITH CAUTION...ESPECIALLY
DEWPOINT OBSERVATIONS.

SCZ027-030-031-034>040-042>050-010200-
...SOUTH CAROLINA...

CITY           SKY/WX    TMP DP  RH WIND       PRES   REMARKS
N CHARLESTON   MOCLDY    77  73  87 NE7       30.03R
WATERFRONT PRK   N/A     81 N/A N/A NE6         N/A
FORT JOHNSON   NOT AVBL
MOUNT PLEASANT MOCLDY    75  73  94 CALM      30.02F FOG
JOHNS ISLAND   MOCLDY    77  72  83 CALM      30.02S
PINOPOLIS        N/A     79  73  83 E9        29.98R
MONCKS CORNER  NOT AVBL
SUMMERVILLE    FAIR      73  73 100 NE3       30.05S
BEAUFORT MCAS  MOCLDY    78  74  87 E7        30.02S
BEAUFORT ARPT  FAIR      79  77  94 NE8       30.01S
HILTON HEAD IS FAIR      79  73  83 CALM      30.02S
GEORGETOWN     NOT AVBL
WALTERBORO     FAIR      75 N/A N/A NE3       30.04S
ORANGEBURG     CLOUDY    75  69  81 E6        30.06S
BARNWELL       MOCLDY    75  72  88 NE5       30.05S
AIKEN          CLOUDY    70  70 100 NE8       30.10F
MANNING        CLOUDY    73 N/A N/A CALM      30.07R
KINGSTREE      NOT AVBL
COLUMBIA       MOCLDY    73  67  81 E9        30.07F
SUMTER         MOCLDY    70  69  96 NE8       30.06F
FLORENCE       CLOUDY    75  71  87 NE7       30.08F
MYRTLE BEACH   MOCLDY    79  72  78 NE23      30.05F
N MYRTLE BEACH CLOUDY    81  72  74 E14G23    30.06F

$$

GAZ063-065-086>088-099>101-113>116-118-119-134-136>141-150-010200-
...GEORGIA...

CITY           SKY/WX    TMP DP  RH WIND       PRES   REMARKS
SAVANNAH ARPT  CLOUDY    79  76  90 NE7       30.00F
HUNTER AAF     MOCLDY    82  72  69 CALM      29.98S
FORT STEWART   MOCLDY    77  73  87 NE2       29.99S
STATESBORO     NOT AVBL
SYLVANIA       MOCLDY    76  75  96 E6        30.03S
CLAXTON        FAIR      79  79 100 E3        30.00S
THOMSON        CLOUDY    71  71 100 N3        30.11S
AUGUSTA-BUSH   CLOUDY    74  70  87 NE8       30.04S
AUGUSTA-DANIEL CLOUDY    74  70  87 NE8       30.06S
SWAINSBORO     FAIR      79  75  89 E5        30.02S
VIDALIA          N/A     77  73  88 N6        30.00S
ALMA           MOCLDY    82  65  56 VRB5      29.97S
WAYCROSS       MOCLDY    87  72  59 SE7       29.97S HX  93
JESUP          FAIR      82  72  69 E3        29.99R
BRUNSWICK      PTCLDY    86  68  54 SE5       29.99S
SAINT SIMONS   PTCLDY    84  71  65 SE10      29.98S

$$

SCZ027-028-034-036>038-045-046-048>050-GAZ119-141-010200-
...LAKE AND SUPPLEMENTAL COASTAL OBSERVATIONS...

STATION/POSITION TIME  TEMP    WIND        PRES    WAVE   SWELL
                       AIR SEA DIR/SP/G            HT/PER HT/PER/DIR
                 (UTC) (F)     (DEG/KT/KT) (MB)    (FT/S) (FT/S/D)
UPR LAKE MARION  NOT AVBL
WINYAH BAY       0100   81      90/ 12     1017.0S
LAKE MURRAY      0000   71      50/  3/  7 1017.9S
ACE BASIN NERRS  0100   77      20/  1     1016.0S
FORT PULASKI     0100   82     120/  4/  5 1016.2R
SAPELO ISLAND    0100   83     140/  6     1016.0S

$$

ANZ835-935-AMZ111-154-330-350-352-354-374-450-454-472-010200-
...C-MAN AND BUOY OBSERVATIONS...

STATION/POSITION TIME  TEMP    WIND        PRES    WAVE   SWELL
                       AIR SEA DIR/SP/G            HT/PER HT/PER/DIR
                 (UTC) (F)     (DEG/KT/KT) (MB)    (FT/S) (FT/S/D)
FOLLY BEACH CMAN 0100   82     140/ 10/ 11 1016.8R
BUOY 41004       0100   83 83  130/ 12/ 16 1016.2R   4/ 5   2/ 8
BUOY 41008       0100   85 85  130/ 14/ 16 1015.2R   3/ 8   2/ 90/ 8
5E ST. MARYS GA  0100      86                N/A     3/ 3
FRYING PAN BUOY  NOT AVBL
BUOY 41025       0100          VRB 12/ 16  1020.3R   3/ 6   2/130/ 6
CAPE LOOKOUT NC  0100   80      90/ 16/ 17 1019.8F
BUOY 41002       0017   80 81  120/  4/  6 1019.6    4/ 7   3/ 90/ 7
BUOY 41010       0100   82 84  150/ 16/ 19 1016.5F   2/ 5   2/ 80/ 8
BUOY 41012       NOT AVBL
ST AUGUSTINE FL  0100   83     140/ 13/ 13 1015.8S
CAPERS NEARSHORE 0000   78     110/ 14/ 16   N/A
FRIPP NEARSHORE  NOT AVBL


$$


USA.gov is the U.S. government's official web portal to all federal, state and local government web resources and services.